TimeMST,TemperatureF,Dew PointF,Humidity,Sea Level PressureIn,VisibilityMPH,Wind Direction,Wind SpeedMPH,Gust SpeedMPH,PrecipitationIn,Events,Conditions,WindDirDegrees,DateUTC
12:53 AM,50.0,28.0,43,30.06,10.0,WNW,9.2,-,N/A,,Clear,300,2012-12-04 07:53:00
1:53 AM,48.0,26.1,42,30.09,10.0,NNW,6.9,-,N/A,,Clear,340,2012-12-04 08:53:00
2:53 AM,46.0,27.0,47,30.11,10.0,NNW,5.8,-,N/A,,Clear,340,2012-12-04 09:53:00
3:53 AM,46.9,28.0,48,30.12,10.0,NNW,4.6,-,N/A,,Clear,340,2012-12-04 10:53:00
4:53 AM,41.0,26.1,55,30.15,10.0,WNW,8.1,-,N/A,,Clear,300,2012-12-04 11:53:00
5:53 AM,39.0,26.1,60,30.21,10.0,Calm,Calm,-,N/A,,Clear,0,2012-12-04 12:53:00
6:53 AM,42.1,27.0,55,30.25,10.0,NW,8.1,-,N/A,,Clear,320,2012-12-04 13:53:00
7:53 AM,45.0,28.0,52,30.27,10.0,NW,8.1,-,N/A,,Clear,320,2012-12-04 14:53:00
8:53 AM,51.1,28.9,43,30.27,10.0,NNW,5.8,-,N/A,,Clear,340,2012-12-04 15:53:00
9:53 AM,55.0,30.0,38,30.27,10.0,North,4.6,-,N/A,,Clear,360,2012-12-04 16:53:00
10:53 AM,59.0,28.9,32,30.27,10.0,Variable,3.5,-,N/A,,Clear,0,2012-12-04 17:53:00
11:53 AM,59.0,28.0,31,30.25,10.0,East,8.1,-,N/A,,Clear,80,2012-12-04 18:53:00
12:53 PM,60.1,28.0,30,30.23,10.0,ENE,6.9,-,N/A,,Clear,60,2012-12-04 19:53:00
1:53 PM,62.1,21.9,21,30.19,10.0,NE,12.7,-,N/A,,Clear,50,2012-12-04 20:53:00
2:53 PM,62.1,21.9,21,30.19,10.0,East,10.4,-,N/A,,Clear,80,2012-12-04 21:53:00
3:53 PM,62.1,21.0,21,30.18,10.0,NE,6.9,-,N/A,,Clear,50,2012-12-04 22:53:00
4:53 PM,57.9,19.9,23,30.21,10.0,ENE,3.5,-,N/A,,Clear,70,2012-12-04 23:53:00
5:53 PM,55.0,19.0,24,30.24,10.0,North,4.6,-,N/A,,Clear,10,2012-12-05 00:53:00
6:53 PM,53.1,19.9,27,30.25,10.0,NNW,4.6,-,N/A,,Clear,340,2012-12-05 01:53:00
7:53 PM,48.0,19.0,32,30.26,10.0,North,5.8,-,N/A,,Clear,360,2012-12-05 02:53:00
8:53 PM,45.0,19.0,36,30.27,10.0,NW,9.2,-,N/A,,Clear,310,2012-12-05 03:53:00
9:53 PM,43.0,19.9,40,30.26,10.0,WNW,8.1,-,N/A,,Clear,300,2012-12-05 04:53:00
10:53 PM,43.0,19.9,40,30.25,10.0,WNW,9.2,-,N/A,,Clear,300,2012-12-05 05:53:00
11:53 PM,42.1,19.9,41,30.23,10.0,NW,6.9,-,N/A,,Clear,310,2012-12-05 06:53:00